[[{"header":{"parameterUnit":"m.s-1","parameterCategory":1,"la1":30.2991,"la2":30.254,"lo1":-89.0895,"lo2":-89.0444,"dy":0.0017,"dx":0.0017,"nx":28,"ny":28,"refTime":"2024-07-22T21:00:00:Z","depth":0,"parameterNumber":2,"parameterNumberName":"U-component_of_WINDS"},"data":[0,0,0,0,0,0,0,0,0,0,0,0,0,0,0,0,0,0,0,0,0,0,0,0,0,0,0,0,0,0,0,0,0,0,0,0,0,0,0,0,0,0,0,0,0,0,0,0,0,0,0,0,0,0,0,0,0,0,1.7043,1.7043,0,1.7072,1.7072,1.7073,1.7077,1.7076,1.7076,1.7076,1.7105,1.7106,1.7107,0,0,0,0,0,0,0,0,0,0,0,0,0,1.6986,1.6987,1.7043,1.7043,1.7043,1.7072,1.7072,1.7073,1.7077,1.7076,1.7076,1.7076,1.7104,1.7106,1.7107,0,0,0,0,0,0,0,0,0,0,0,0,0,1.7013,1.6987,1.7043,1.7049,1.705,1.7072,1.7072,1.7073,1.7077,1.7076,1.7076,1.7075,1.7104,1.7106,1.7107,1.7125,0,0,1.7112,1.7112,0,0,0,0,0,0,0,0,1.7011,1.7015,1.7047,1.7048,1.7049,1.707,1.7063,1.709,1.7077,1.7066,1.7076,1.7075,1.7094,1.7096,1.7102,1.7126,1.7128,1.7112,1.7113,1.7114,1.7114,0,0,0,0,0,0,0,1.7009,1.7013,1.7054,1.7048,1.7049,1.7049,1.7052,1.7068,1.7082,1.7067,1.7068,1.7071,1.7094,1.7101,1.7103,1.7128,1.7112,1.7113,1.7114,1.7115,1.7164,1.7165,0,0,0,0,0,0,1.7007,1.7012,1.7053,1.7055,1.7029,1.705,1.7054,1.7064,1.7082,1.7084,1.7071,1.7071,1.7098,1.7101,1.7104,1.7124,1.7114,1.7115,1.7116,1.7164,1.7165,1.7165,0,0,0,0,0,0,1.7005,1.701,1.7052,1.7034,1.7039,1.7052,1.7063,1.7065,1.7072,1.7085,1.7087,1.7076,1.7098,1.7102,1.7119,1.7125,1.7116,1.7117,1.7164,1.7164,1.7165,1.7166,0,0,0,0,0,0,1.7004,1.701,1.7018,1.7034,1.704,1.7068,1.7063,1.7066,1.7074,1.7074,1.709,1.7092,1.7098,1.7117,1.7121,1.7127,1.7118,1.7163,1.7164,1.7165,1.7165,1.7166,1.7167,0,0,0,0,0,1.7002,1.7018,1.7018,1.7023,1.705,1.7068,1.7072,1.7079,1.7075,1.7082,1.709,1.7092,1.7124,1.7118,1.7123,1.713,1.7163,1.7164,1.7164,1.7165,1.7166,1.7167,0,0,0,0,0,0,1.7003,1.702,1.7021,1.7043,1.7054,1.7069,1.7079,1.708,1.7093,1.7092,1.71,1.7103,1.7119,1.7126,1.712,1.7146,1.7143,1.7145,1.7142,1.7143,1.7144,1.7142,1.712,0,0,0,0,0,1.7006,1.702,1.7033,1.7051,1.7057,1.7066,1.7075,1.7079,1.709,1.7095,1.7105,1.7115,1.7127,1.7136,1.7148,1.7166,1.7168,1.7173,1.7174,1.7174,1.7176,1.7183,1.7185,1.7168,1.7168,1.7168,0,0,1.7012,1.7023,1.7031,1.7052,1.7061,1.7073,1.7071,1.7085,1.7094,1.7097,1.7114,1.712,1.7133,1.715,1.7158,1.7156,1.7181,1.7176,1.7176,1.7177,1.7184,1.7186,1.7187,1.7168,1.7168,1.7168,0,0,1.7029,1.704,1.7054,1.7063,1.7076,1.7082,1.7085,1.7099,1.7104,1.712,1.7122,1.7132,1.7154,1.7161,1.7168,1.7184,1.7185,1.7188,1.7193,1.72,1.7201,1.7202,1.7206,1.7208,1.7189,1.7189,1.7189,0,1.7035,1.7055,1.7062,1.7075,1.7083,1.7085,1.7098,1.7106,1.7123,1.7128,1.7126,1.715,1.7159,1.7177,1.718,1.7186,1.7188,1.7186,1.7201,1.7202,1.7203,1.7207,1.7209,1.7189,1.7189,1.7189,1.7189,0,1.706,1.7074,1.7084,1.7099,1.7108,1.7121,1.7128,1.7136,1.7138,1.7143,1.7158,1.7168,1.7181,1.7185,1.7188,1.7202,1.72,1.7199,1.7196,1.7205,1.7208,1.721,1.7189,1.7189,1.7189,1.7189,0,0,1.7082,1.7098,1.7101,1.7106,1.712,1.713,1.7142,1.7154,1.7159,1.717,1.7179,1.7195,1.7194,1.7201,1.7204,1.7211,1.722,1.7209,1.7209,1.7209,1.7233,1.7234,1.7235,1.722,1.722,1.7221,1.7232,0,1.71,1.7122,1.7126,1.7145,1.7156,1.7157,1.7167,1.7175,1.7179,1.7188,1.7193,1.7204,1.7202,1.7206,1.7212,1.7217,1.7225,1.7217,1.7227,1.7228,1.7224,1.7238,1.7239,1.7249,1.7233,1.7234,1.7234,0,1.7124,1.7134,1.7154,1.7162,1.7167,1.7176,1.7186,1.7195,1.7203,1.7206,1.7212,1.7214,1.7225,1.722,1.7233,1.7228,1.7232,1.7235,1.7235,1.7237,1.7232,1.7238,1.7253,1.7254,1.7237,1.7236,1.7236,0,1.7136,1.7154,1.7167,1.7172,1.7183,1.7188,1.7193,1.7201,1.7207,1.7215,1.7218,1.7228,1.7233,1.7239,1.7243,1.7239,1.7255,1.7251,1.7256,1.7256,1.726,1.726,1.7275,1.7264,1.7264,1.7264,1.7264,0,1.7155,1.7167,1.7172,1.718,1.7192,1.7195,1.7207,1.7211,1.7218,1.7225,1.7226,1.7234,1.7238,1.7245,1.7248,1.7257,1.726,1.7261,1.7262,1.7261,1.726,1.7264,1.7263,1.7264,1.7264,1.7264,1.7264,0,1.717,1.7174,1.7189,1.7197,1.7199,1.7207,1.7213,1.722,1.7224,1.7233,1.7236,1.7241,1.7249,1.7253,1.7264,1.7265,1.7275,1.7276,1.7273,1.7273,1.7277,1.7277,1.7295,1.7297,1.7285,1.7285,1.7285,0,1.7182,1.7191,1.7199,1.7204,1.7208,1.7217,1.7222,1.7225,1.7231,1.7238,1.7244,1.7252,1.7259,1.7272,1.7276,1.7283,1.7283,1.7289,1.7284,1.7282,1.7282,1.7281,1.7281,1.729,1.729,1.729,1.729,0,1.7202,1.7202,1.7211,1.7218,1.7224,1.7231,1.7237,1.7241,1.7244,1.725,1.7258,1.7263,1.7273,1.728,1.7287,1.7291,1.729,1.7291,1.7292,1.7292,1.7289,1.7289,1.7274,1.7291,1.7291,1.7291,1.7291,1.7291,1.7215,1.7221,1.7227,1.7235,1.724,1.7245,1.7251,1.7254,1.7261,1.7269,1.727,1.7278,1.7283,1.7292,1.7295,1.7301,1.7299,1.7302,1.7302,1.7303,1.7302,1.7288,1.7302,1.7302,1.7302,1.7302,1.7302,0,1.7233,1.7236,1.7244,1.7251,1.7257,1.7255,1.7261,1.7266,1.7273,1.7278,1.7284,1.7291,1.7298,1.7301,1.7308,1.7311,1.7311,1.7312,1.7312,1.7313,1.7304,1.7302,1.7312,1.7312,1.7312,1.7312,1.7312,1.7312,1.7244,1.7254,1.7255,1.7266,1.7269,1.7277,1.728,1.7284,1.7287,1.7296,1.7301,1.7303,1.7307,1.7313,1.7318,1.7319,1.732,1.7322,1.7322,1.7315,1.7313,1.7312,1.731,1.7323,1.7323,1.733,1.7331,1.7331]},{"header":{"parameterUnit":"m.s-1","parameterCategory":1,"la1":30.2991,"la2":30.254,"lo1":-89.0895,"lo2":-89.0444,"dy":0.0017,"dx":0.0017,"nx":28,"ny":28,"refTime":"2024-07-22T21:00:00:Z","depth":0,"parameterNumber":3,"parameterNumberName":"V-component_of_WINDS"},"data":[0,0,0,0,0,0,0,0,0,0,0,0,0,0,0,0,0,0,0,0,0,0,0,0,0,0,0,0,0,0,0,0,0,0,0,0,0,0,0,0,0,0,0,0,0,0,0,0,0,0,0,0,0,0,0,0,0,0,3.5713,3.5713,0,3.5727,3.5727,3.5727,3.5716,3.5716,3.5715,3.5715,3.5727,3.5727,3.5728,0,0,0,0,0,0,0,0,0,0,0,0,0,3.5675,3.5675,3.5713,3.5713,3.5713,3.5727,3.5727,3.5727,3.5716,3.5716,3.5715,3.5715,3.5726,3.5727,3.5728,0,0,0,0,0,0,0,0,0,0,0,0,0,3.569,3.5676,3.5713,3.5709,3.5709,3.5726,3.5727,3.5727,3.5717,3.5716,3.5715,3.5715,3.5726,3.5727,3.5728,3.5749,0,0,3.5732,3.5732,0,0,0,0,0,0,0,0,3.5689,3.5691,3.571,3.571,3.571,3.5719,3.5718,3.5734,3.5717,3.5714,3.5715,3.5714,3.5725,3.5726,3.573,3.5749,3.575,3.5732,3.5732,3.5733,3.5733,0,0,0,0,0,0,0,3.5688,3.5691,3.5718,3.571,3.571,3.5707,3.5708,3.5721,3.5723,3.5714,3.5713,3.5715,3.5724,3.5729,3.573,3.575,3.5732,3.5733,3.5733,3.5734,3.5786,3.5787,0,0,0,0,0,0,3.5688,3.569,3.5718,3.5718,3.5698,3.5708,3.5709,3.5717,3.5723,3.5723,3.5716,3.5715,3.5727,3.5729,3.573,3.5754,3.5733,3.5734,3.5735,3.5786,3.5786,3.5787,0,0,0,0,0,0,3.5687,3.569,3.5717,3.5704,3.5707,3.5709,3.5717,3.5717,3.5722,3.5724,3.5724,3.572,3.5727,3.5729,3.5744,3.5754,3.5734,3.5735,3.5785,3.5786,3.5787,3.5802,0,0,0,0,0,0,3.5686,3.569,3.5698,3.5704,3.5708,3.5731,3.5718,3.5718,3.5724,3.5723,3.5728,3.5728,3.5726,3.5743,3.5745,3.5755,3.5736,3.5784,3.5785,3.5787,3.5801,3.5803,3.5806,0,0,0,0,0,3.5685,3.5701,3.5699,3.5702,3.5718,3.5732,3.5734,3.5732,3.5725,3.5733,3.5734,3.5728,3.5753,3.5744,3.5747,3.5758,3.5783,3.5785,3.5786,3.5799,3.5803,3.5806,0,0,0,0,0,0,3.5695,3.5702,3.5699,3.5718,3.5725,3.573,3.574,3.5736,3.5744,3.5742,3.5739,3.5741,3.5757,3.5759,3.5749,3.5778,3.5767,3.5769,3.5776,3.5779,3.5782,3.578,3.5737,0,0,0,0,0,3.57,3.5711,3.5716,3.5733,3.5736,3.5738,3.5744,3.5742,3.5748,3.575,3.5753,3.5758,3.5768,3.5774,3.5782,3.5801,3.5802,3.581,3.5813,3.5815,3.5817,3.5827,3.583,3.5793,3.5793,3.5793,0,0,3.5709,3.5714,3.5721,3.5735,3.574,3.5751,3.574,3.5752,3.576,3.5752,3.5767,3.5769,3.5775,3.5792,3.58,3.5795,3.5827,3.5817,3.5819,3.5819,3.5829,3.5832,3.5835,3.5794,3.5794,3.5793,0,0,3.5732,3.5737,3.5751,3.5757,3.5765,3.5766,3.5769,3.5776,3.5777,3.5792,3.5787,3.5796,3.5812,3.5816,3.5821,3.5846,3.5841,3.5849,3.5863,3.5873,3.5876,3.5878,3.5887,3.589,3.5851,3.5851,3.5851,0,3.5742,3.5759,3.5759,3.5772,3.5778,3.5773,3.5787,3.5792,3.5801,3.5805,3.58,3.582,3.5823,3.5842,3.5848,3.5852,3.5855,3.5848,3.5875,3.5878,3.588,3.5888,3.5892,3.5852,3.5852,3.5852,3.5852,0,3.5771,3.5783,3.5794,3.5805,3.5812,3.5825,3.5827,3.5834,3.5832,3.5834,3.5849,3.5854,3.5863,3.5868,3.5865,3.5886,3.5882,3.5876,3.5865,3.5885,3.5892,3.5896,3.5853,3.5853,3.5853,3.5853,0,0,3.5799,3.5811,3.5815,3.582,3.5829,3.5838,3.5851,3.5861,3.5867,3.5875,3.5885,3.5899,3.5894,3.5899,3.5897,3.5906,3.5926,3.5899,3.5899,3.5903,3.5948,3.5952,3.5955,3.5923,3.5923,3.5924,3.5947,0,3.5821,3.5845,3.5846,3.5868,3.5879,3.5875,3.5886,3.5892,3.5895,3.5904,3.5906,3.5916,3.5908,3.5911,3.592,3.5921,3.5934,3.592,3.5931,3.5932,3.5929,3.5959,3.5963,3.5985,3.595,3.5951,3.5951,0,3.585,3.586,3.5883,3.5891,3.5896,3.5906,3.5916,3.5925,3.5932,3.5933,3.5939,3.5937,3.595,3.5939,3.5956,3.5946,3.5951,3.5953,3.5954,3.5954,3.5942,3.5959,3.5992,3.5995,3.5956,3.5955,3.5955,0,3.5867,3.5886,3.5902,3.5907,3.5917,3.5924,3.5929,3.5935,3.5942,3.595,3.5954,3.5963,3.5968,3.5975,3.5975,3.5968,3.5993,3.5982,3.5993,3.5993,3.5997,3.5997,3.603,3.6002,3.6002,3.6002,3.6002,0,3.5892,3.5906,3.591,3.592,3.5936,3.5937,3.5952,3.5955,3.5962,3.5971,3.5969,3.5978,3.5978,3.5987,3.5987,3.6001,3.6003,3.6004,3.6003,3.6003,3.6003,3.6006,3.6004,3.6003,3.6003,3.6003,3.6002,0,3.5913,3.5916,3.5934,3.5943,3.5945,3.5956,3.5963,3.5972,3.5975,3.5987,3.599,3.5994,3.6005,3.6006,3.6018,3.6018,3.6035,3.6033,3.6033,3.6032,3.6043,3.6041,3.6078,3.6082,3.6052,3.6053,3.6053,0,3.5927,3.5938,3.5949,3.5956,3.5961,3.5972,3.5979,3.5981,3.5988,3.5998,3.6005,3.6016,3.6025,3.6042,3.6045,3.6055,3.6053,3.6065,3.6054,3.6054,3.6052,3.6051,3.6052,3.6067,3.6067,3.6067,3.6068,0,3.5953,3.5955,3.5965,3.5977,3.5986,3.5995,3.6003,3.6009,3.6011,3.6019,3.6031,3.6038,3.6051,3.6062,3.6071,3.6075,3.6071,3.6071,3.6074,3.6074,3.6073,3.6073,3.6037,3.607,3.607,3.607,3.6069,3.6069,3.597,3.598,3.5989,3.6001,3.6008,3.6017,3.6026,3.603,3.604,3.6052,3.6052,3.6065,3.6072,3.6085,3.6089,3.6099,3.6095,3.6099,3.61,3.6101,3.6101,3.6072,3.6101,3.61,3.61,3.61,3.61,0,3.5995,3.6001,3.6013,3.6025,3.6035,3.6033,3.6042,3.605,3.6061,3.6069,3.6078,3.6092,3.6102,3.6107,3.6117,3.6124,3.6122,3.6126,3.6125,3.6126,3.6105,3.6101,3.6127,3.6127,3.6127,3.6127,3.6127,3.6127,3.6009,3.6025,3.6028,3.6048,3.6054,3.6067,3.6073,3.608,3.6086,3.6102,3.6111,3.6115,3.6121,3.6132,3.6141,3.6142,3.6146,3.615,3.615,3.613,3.6127,3.6125,3.6121,3.6151,3.6151,3.6171,3.6171,3.6171]}]]